Powrót do katalogu

HERMES 4

AktywnyŁącznośćSSO
NORAD 63833·PAYLOAD·🇮🇹 Italy

Wystrzelony Mar 15, 2025 z Vandenberg Space Force Base

Loading…

Następne Przeloty (najbliższe 24 godziny)

TLE

ŚwieżeSource: Space-Track

Epoka: Sep 14, 2026, 10:15 UTC

1 63833U 25052BP  26257.42764055  .00007417  00000-0  24213-3 0  9996
2 63833  97.3740 150.8425 0001083 203.6286 156.4907 15.32060428 83609

Śledź HERMES 4 w czasie rzeczywistym z AllMySat

Download on the App Store